Home   Weather   Jaén   Past weeks

Flag for Spain Past Weather in Jaén, Spain — Yesterday and Last 2 Weeks

Now
61 °F

Clear.


Feels Like: 61 °F
Forecast: 54 / 68 °F
Wind: 7 mph from West

Location: Granada / Aeropuerto

Current Time: Apr 26, 2017 at 12:11:47 am

Latest Report: Apr 25, 2017 at 11:30 pm


Visibility: 10 mi

Pressure: 29.86 "Hg (27.93 "Hg at 565m altitude)

Humidity: 63%

Dew Point: 48 °F

Location of JaénLocation

Past Weather in Jaén — Graph

°F

Jaén Temperature Yesterday

Maximum temperature yesterday: 79 °F (at 2:30 pm)
Minimum temperature yesterday: 52 °F (at 7:30 am)
Average temperature yesterday: 65 °F

High & Low Weather Summary for the Past Weeks

 TemperatureHumidityPressure
High90 °F (Apr 18, 4:00 pm)93% (Apr 11, 8:00 am)30.24 "Hg (Apr 11, 8:00 am)
Low41 °F (Apr 11, 8:00 am)12% (Apr 12, 5:30 pm)29.80 "Hg (Apr 25, 7:00 pm)
Average64 °F49%30.07 "Hg
* Reported Apr 10 11:00 pm — Apr 25 11:00 pm, Jaén, Weather by CustomWeather, © 2017

Note: Actual official high and low records may vary slightly from our data, if they occured in-between our weather recording intervals... More about our weather records

Advertising

Jaén Weather History for the Previous 24 Hours

Scroll right to see more
 ConditionsComfort  
Time TempWeatherWind HumidityBarometerVisibility
11:00 pm
Tue, Apr 25
61 °FClear.7 mph63%29.86 "Hg10 mi
10:30 pm63 °FPassing clouds.10 mph59%29.86 "HgN/A
10:00 pm63 °FClear.12 mph59%29.86 "Hg10 mi
9:30 pm64 °FClear.15 mph56%29.83 "Hg10 mi
9:00 pm66 °FPassing clouds.15 mph52%29.83 "HgN/A
8:30 pm68 °FPassing clouds.14 mph35%29.83 "HgN/A
8:00 pm72 °FPassing clouds.12 mph33%29.83 "HgN/A
7:30 pm73 °FPassing clouds.13 mph33%29.83 "HgN/A
7:00 pm75 °FPassing clouds.15 mph36%29.80 "HgN/A
6:30 pm75 °FPassing clouds.15 mph29%29.83 "HgN/A
6:00 pm77 °FPassing clouds.14 mph28%29.83 "HgN/A
5:30 pm75 °FScattered clouds.17 mph34%29.83 "HgN/A
4:30 pm77 °FScattered clouds.17 mph28%29.83 "HgN/A
4:00 pm77 °FScattered clouds.15 mph34%29.83 "HgN/A
3:30 pm77 °FScattered clouds.14 mph34%29.86 "HgN/A
3:00 pm77 °FScattered clouds.18 mph36%29.86 "HgN/A
2:30 pm79 °FScattered clouds.13 mph34%29.86 "HgN/A
1:30 pm77 °FScattered clouds.9 mph39%29.89 "HgN/A
1:00 pm75 °FPassing clouds.5 mph44%29.89 "HgN/A
12:30 pm73 °FPassing clouds.3 mph44%29.89 "HgN/A
12:00 pm70 °FPassing clouds.2 mph50%29.89 "HgN/A
11:30 am68 °FPassing clouds.1 mph53%29.92 "HgN/A
11:00 am66 °FSunny.1 mph60%29.92 "Hg10 mi
10:30 am63 °FSunny.1 mph64%29.92 "Hg10 mi
10:00 am61 °FPassing clouds.No wind68%29.92 "HgN/A
9:00 am57 °FPassing clouds.No wind77%29.95 "HgN/A
8:30 am54 °FPassing clouds.No wind82%29.95 "HgN/A
7:30 am52 °FPassing clouds.1 mph88%29.92 "HgN/A
7:00 am54 °FPassing clouds.No wind82%29.92 "HgN/A
6:30 am54 °FPassing clouds.2 mph82%29.92 "HgN/A
6:00 am54 °FPassing clouds.1 mph82%29.92 "HgN/A
5:30 am54 °FPassing clouds.1 mph82%29.92 "HgN/A
4:30 am54 °FPassing clouds.1 mph77%29.95 "HgN/A
3:30 am54 °FCool.2 mph77%29.95 "HgN/A
3:00 am55 °FCool.1 mph77%29.95 "HgN/A
2:30 am57 °FCool.No wind72%29.98 "HgN/A
2:00 am57 °FCool.No wind72%29.98 "HgN/A
1:30 am61 °FRefreshingly cool.2 mph59%29.98 "HgN/A
1:00 am61 °FClear.1 mph63%29.98 "Hg10 mi
12:30 am63 °FClear.3 mph59%29.98 "Hg10 mi
12:00 am64 °FClear.1 mph60%29.98 "Hg10 mi
Weather by CustomWeather, © 2017

See weather overviewHow to use our weather pages